Weather History for Spartanburg, SC

Change the Weather History Date:

Monday, March 11, 2013

  Actual Average (KGSP) Record (KGSP)
Temperature  
Mean Temperature 56 °F 52 °F  
Max Temperature 69 °F 63 °F 84 °F (2009)
Min Temperature 44 °F 40 °F 17 °F (1969)
Degree Days  
Heating Degree Days 8 14  
Month to date heating degree days 164  
Since 1 July heating degree days 2613  
Cooling Degree Days 0 0  
Month to date cooling degree days 0  
Year to date cooling degree days 0  
Growing Degree Days 6 (Base 50)    
Moisture  
Dew Point 47 °F    
Average Humidity 68    
Maximum Humidity 100    
Minimum Humidity 49    
Precipitation  
Precipitation 0.14 in 0.15 in 1.95 in (1901)
Month to date precipitation 1.63  
Year to date precipitation 9.42  
Snow  
Snow 0.00 in 0.00 in 6.00 in (1960)
Month to date snowfall 0.4  
Since 1 July snowfall 4.2  
Snow Depth -    
Sea Level Pressure  
Sea Level Pressure 30.01 in    
Wind  
Wind Speed 4 mph (SSE)    
Max Wind Speed 13 mph    
Max Gust Speed 24 mph    
Visibility 10 miles    
Events Rain    
T = Trace of Precipitation, MM = Missing Value Source: NWS Daily Summary

Daily Weather History Graph

Daily Weather History Graph

Search for Another Location

Airport:

Trip Planner

Search our weather history database for the weather conditions in past years. The results will help you decide how hot, cold, wet, or windy it might be!

Date:

Astronomy

Mar. 11, 2013 Rise Set
Actual Time 7:43 AM EDT 7:32 PM EDT
Civil Twilight 7:18 AM EDT 7:57 PM EDT
Nautical Twilight 6:49 AM EDT 8:26 PM EDT
Astronomical Twilight 6:19 AM EDT 8:56 PM EDT
Moon 7:17 AM EDT (3/11) 7:40 PM EDT (3/11)
Length of Visible Light 12h 39m
Length of Day
11h 48m
Waning Crescent, 0% of the Moon is Illuminated
Mar 11
Waning Crescent
Mar 11
New
Mar 19
First Quarter
Mar 27
Full
Apr 3
Last Quarter

Hourly Weather History & Observations

Time (EDT) Temp. Dew Point Humidity Pressure Visibility Wind Dir Wind Speed Gust Speed Precip Events Conditions
12:15 AM 53.6 °F 37.4 °F 54% 30.17 in 10.0 mi SE 4.6 mph - N/A   Clear
12:35 AM 53.6 °F 37.4 °F 54% 30.17 in 10.0 mi SE 5.8 mph - N/A   Clear
12:55 AM 55.4 °F 37.4 °F 51% 30.17 in 10.0 mi SE 5.8 mph - N/A   Clear
1:15 AM 53.6 °F 37.4 °F 54% 30.17 in 10.0 mi SE 5.8 mph - N/A   Clear
1:35 AM 53.6 °F 37.4 °F 54% 30.17 in 10.0 mi SSE 3.5 mph - N/A   Clear
1:55 AM 53.6 °F 39.2 °F 58% 30.17 in 10.0 mi SSE 4.6 mph - N/A   Clear
2:15 AM 51.8 °F 39.2 °F 62% 30.16 in 10.0 mi SE 5.8 mph - N/A   Clear
2:35 AM 51.8 °F 41.0 °F 67% 30.15 in 10.0 mi SE 4.6 mph - N/A   Clear
3:15 AM 51.8 °F 41.0 °F 67% 30.15 in 10.0 mi Calm Calm - N/A   Clear
3:35 AM 51.8 °F 41.0 °F 67% 30.14 in 10.0 mi Calm Calm - N/A   Clear
3:55 AM 50.0 °F 41.0 °F 71% 30.13 in 10.0 mi Calm Calm - N/A   Clear
4:15 AM 50.0 °F 41.0 °F 71% 30.12 in 10.0 mi Calm Calm - N/A   Clear
4:35 AM 50.0 °F 41.0 °F 71% 30.12 in 10.0 mi Calm Calm - N/A   Clear
4:55 AM 48.2 °F 41.0 °F 76% 30.12 in 10.0 mi Calm Calm - N/A   Clear
5:15 AM 48.2 °F 41.0 °F 76% 30.10 in 10.0 mi Calm Calm - N/A   Clear
5:35 AM 46.4 °F 41.0 °F 81% 30.10 in 10.0 mi Calm Calm - N/A   Clear
5:55 AM 46.4 °F 41.0 °F 81% 30.10 in 10.0 mi Calm Calm - N/A   Clear
6:15 AM 46.4 °F 41.0 °F 81% 30.10 in 10.0 mi Calm Calm - N/A   Clear
6:55 AM 46.4 °F 41.0 °F 81% 30.09 in 10.0 mi Calm Calm - N/A   Clear
7:15 AM 46.4 °F 41.0 °F 81% 30.10 in 10.0 mi Calm Calm - N/A   Clear
7:35 AM 44.6 °F 41.0 °F 87% 30.11 in 10.0 mi Calm Calm - N/A   Scattered Clouds
8:15 AM 46.4 °F 42.8 °F 87% 30.10 in 10.0 mi Calm Calm - N/A   Overcast
8:35 AM 48.2 °F 42.8 °F 82% 30.11 in 10.0 mi Calm Calm - N/A   Overcast
8:55 AM 48.2 °F 42.8 °F 82% 30.11 in 10.0 mi Calm Calm - N/A   Overcast
9:15 AM 50.0 °F 41.0 °F 71% 30.12 in 10.0 mi Calm Calm - N/A   Overcast
9:35 AM 50.0 °F 39.2 °F 66% 30.11 in 10.0 mi ESE 3.5 mph - N/A   Overcast
9:55 AM 51.8 °F 39.2 °F 62% 30.10 in 10.0 mi SE 3.5 mph - N/A   Overcast
10:15 AM 53.6 °F 41.0 °F 62% 30.10 in 10.0 mi SE 6.9 mph - N/A   Overcast
10:35 AM 53.6 °F 42.8 °F 67% 30.10 in 10.0 mi SSE 5.8 mph - N/A   Overcast
10:55 AM 57.2 °F 44.6 °F 63% 30.08 in 10.0 mi SE 4.6 mph - N/A   Overcast
11:15 AM 59.0 °F 46.4 °F 63% 30.07 in 10.0 mi South 8.1 mph - N/A   Overcast
11:35 AM 59.0 °F 46.4 °F 63% 30.07 in 10.0 mi South 6.9 mph - N/A   Overcast
11:55 AM 59.0 °F 46.4 °F 63% 30.06 in 10.0 mi South 4.6 mph - N/A   Overcast
12:15 PM 59.0 °F 48.2 °F 67% 30.05 in 10.0 mi SE 4.6 mph - N/A   Overcast
12:35 PM 60.8 °F 50.0 °F 68% 30.05 in 10.0 mi SSE 8.1 mph - N/A   Overcast
12:55 PM 62.6 °F 50.0 °F 63% 30.04 in 10.0 mi South 8.1 mph - N/A   Overcast
1:15 PM 64.4 °F 50.0 °F 59% 30.04 in 10.0 mi South 8.1 mph - N/A   Overcast
1:35 PM 66.2 °F 51.8 °F 60% 30.02 in 10.0 mi SSE 12.7 mph 18.4 mph N/A   Mostly Cloudy
1:55 PM 68.0 °F 51.8 °F 56% 30.00 in 10.0 mi SSW 11.5 mph 24.2 mph N/A   Mostly Cloudy
2:15 PM 68.0 °F 51.8 °F 56% 29.98 in 10.0 mi South 10.4 mph 20.7 mph N/A   Mostly Cloudy
2:35 PM 68.0 °F 51.8 °F 56% 29.96 in 10.0 mi South 8.1 mph 17.3 mph N/A   Scattered Clouds
2:55 PM 69.8 °F 50.0 °F 49% 29.94 in 10.0 mi South 10.4 mph 18.4 mph N/A   Scattered Clouds
3:15 PM 69.8 °F 50.0 °F 49% 29.93 in 10.0 mi South 9.2 mph 19.6 mph N/A   Mostly Cloudy
3:35 PM 69.8 °F 50.0 °F 49% 29.91 in 10.0 mi South 10.4 mph - N/A   Mostly Cloudy
4:15 PM 68.0 °F 50.0 °F 52% 29.91 in 10.0 mi South 9.2 mph 17.3 mph N/A   Scattered Clouds
4:35 PM 68.0 °F 50.0 °F 52% 29.90 in 10.0 mi South 10.4 mph 16.1 mph N/A   Scattered Clouds
4:55 PM 68.0 °F 48.2 °F 49% 29.89 in 10.0 mi South 10.4 mph 19.6 mph N/A   Scattered Clouds
5:15 PM 68.0 °F 50.0 °F 52% 29.88 in 10.0 mi South 8.1 mph - N/A   Scattered Clouds
5:35 PM 68.0 °F 50.0 °F 52% 29.88 in 10.0 mi SSE 8.1 mph - N/A   Mostly Cloudy
5:55 PM 68.0 °F 50.0 °F 52% 29.87 in 10.0 mi SSE 9.2 mph 18.4 mph N/A   Overcast
6:15 PM 68.0 °F 50.0 °F 52% 29.86 in 10.0 mi SSE 11.5 mph - N/A   Overcast
6:35 PM 68.0 °F 50.0 °F 52% 29.86 in 10.0 mi SSE 8.1 mph - N/A   Mostly Cloudy
7:15 PM 66.2 °F 50.0 °F 56% 29.87 in 10.0 mi South 5.8 mph - N/A   Scattered Clouds
7:35 PM 66.2 °F 50.0 °F 56% 29.87 in 10.0 mi SSE 4.6 mph - N/A   Mostly Cloudy
7:55 PM 64.4 °F 51.8 °F 64% 29.85 in 10.0 mi SE 8.1 mph - N/A Rain Rain
8:15 PM 62.6 °F 51.8 °F 68% 29.85 in 10.0 mi SE 6.9 mph - N/A Rain Light Rain
8:35 PM 60.8 °F 53.6 °F 77% 29.87 in 10.0 mi SSE 3.5 mph - 0.01 in Rain Light Rain
8:55 PM 60.8 °F 55.4 °F 82% 29.86 in 10.0 mi Calm Calm - 0.02 in Rain Light Rain
9:15 PM 60.8 °F 55.4 °F 82% 29.86 in 10.0 mi Calm Calm - 0.01 in Rain Light Rain
9:35 PM 59.0 °F 57.2 °F 94% 29.86 in 7.0 mi Calm Calm - 0.03 in Rain Rain
9:55 PM 59.0 °F 59.0 °F 100% 29.86 in 7.0 mi Calm Calm - 0.05 in Rain Rain
10:15 PM 59.0 °F 59.0 °F 100% 29.86 in 7.0 mi West 3.5 mph - 0.01 in Rain Rain
10:35 PM 59.0 °F 59.0 °F 100% 29.87 in 7.0 mi WNW 8.1 mph - 0.03 in Rain Rain
11:15 PM 59.0 °F 59.0 °F 100% 29.86 in 4.0 mi Calm Calm - 0.02 in Rain Rain
11:35 PM 59.0 °F 59.0 °F 100% 29.86 in 7.0 mi Calm Calm - 0.03 in Rain Rain
11:55 PM 57.2 °F 57.2 °F 100% 29.86 in 3.0 mi Calm Calm - 0.04 in Rain Heavy Rain